Location: Dalton
(34.7700°N, 84.9700°W)
Time: 22:27:00
(UTC-04:00)

Tiangong 2 - Pass Details

Date: 10 October 2017
Orbit: 388 x 391 km, 42.8° (Epoch: 22 October)

Event Time Altitude Azimuth Distance (km) Brightness Sun altitude
Exits shadow 07:06:01 10° 289° (WNW) 1,405 3.3 -8.1°
Maximum altitude 07:08:41 25° 347° (NNW) 838 2.6 -7.6°
Drops below altitude 10° 07:11:24 10° 45° (NE) 1,422 4.6 -7.0°
Sets 07:13:43 0° 59° (ENE) 2,279 6.0 -6.6°
